• In Germany
  • List of Countries
  • For 7 days
  • Water Temperature
  • Satellite Maps
  • Weather Map
  • Weather Widgets
  • user-avatar
    Login

    Hourly Weather Quibdó

    Today, 26 September, Tuesday

    Time Temperature Precipitation Wind Pressure Humidity
    00:00 +23°C° 0.3 mm 0 mps 750 mmHg 96%
    01:00 +23°C° 0.3 mm 0 mps 750 mmHg 95%
    02:00 +23°C° 0.3 mm 0 mps 750 mmHg 95%
    03:00 +23°C° 0.3 mm 0 mps 750 mmHg 95%
    04:00 +23°C° 0.3 mm 0 mps 750 mmHg 95%
    05:00 +23°C° 0 mm 0 mps 750 mmHg 94%
    06:00 +23°C° 0 mm 0 mps 750 mmHg 93%
    07:00 +23°C° 0 mm 0 mps 751 mmHg 92%
    08:00 +25°C° 0.3 mm 0 mps 751 mmHg 86%
    09:00 +27°C° 0.3 mm 0 mps 751 mmHg 80%
    10:00 +31°C° 0.3 mm 1 mps 751 mmHg 74%
    11:00 +31°C° 0.6 mm 1 mps 750 mmHg 72%
    12:00 +32°C° 0.6 mm 1 mps 750 mmHg 70%
    13:00 +33°C° 0.6 mm 1 mps 749 mmHg 67%
    14:00 +32°C° 0.9 mm 1 mps 749 mmHg 71%
    15:00 +31°C° 0.9 mm 1 mps 748 mmHg 74%
    16:00 +31°C° 0.9 mm 1 mps 747 mmHg 78%
    17:00 +29°C° 0.6 mm 1 mps 748 mmHg 83%
    18:00 +28°C° 0.6 mm 1 mps 749 mmHg 89%
    19:00 +24°C° 0.6 mm 0 mps 749 mmHg 94%
    20:00 +24°C° 0.2 mm 0 mps 750 mmHg 95%
    21:00 +24°C° 0.2 mm 0 mps 750 mmHg 95%
    22:00 +24°C° 0.2 mm 0 mps 751 mmHg 96%
    23:00 +24°C° 0 mm 0 mps 751 mmHg 96%

    Tomorrow, 27 September, Wednesday

    Time Temperature Precipitation Wind Pressure Humidity
    00:00 +23°C° 0 mm 0 mps 750 mmHg 96%
    01:00 +23°C° 0 mm 0 mps 750 mmHg 96%
    02:00 +23°C° 0 mm 0 mps 750 mmHg 96%
    03:00 +23°C° 0 mm 0 mps 750 mmHg 96%
    04:00 +23°C° 0 mm 0 mps 749 mmHg 95%
    05:00 +23°C° 0 mm 0 mps 750 mmHg 94%
    06:00 +24°C° 0 mm 0 mps 750 mmHg 93%
    07:00 +24°C° 0 mm 0 mps 750 mmHg 92%
    08:00 +26°C° 0 mm 0 mps 750 mmHg 84%
    09:00 +30°C° 0 mm 1 mps 750 mmHg 76%
    10:00 +32°C° 0 mm 1 mps 750 mmHg 68%
    11:00 +33°C° 0.2 mm 1 mps 750 mmHg 67%
    12:00 +33°C° 0.2 mm 1 mps 749 mmHg 65%
    13:00 +34°C° 0.2 mm 1 mps 748 mmHg 64%
    14:00 +33°C° 1.1 mm 1 mps 747 mmHg 70%
    15:00 +32°C° 1.1 mm 1 mps 747 mmHg 76%
    16:00 +31°C° 1.1 mm 1 mps 747 mmHg 82%
    17:00 +29°C° 2.3 mm 1 mps 747 mmHg 86%
    18:00 +28°C° 2.3 mm 1 mps 748 mmHg 90%
    19:00 +27°C° 2.3 mm 1 mps 749 mmHg 94%
    20:00 +26°C° 2.7 mm 1 mps 750 mmHg 95%
    21:00 +24°C° 2.7 mm 0 mps 750 mmHg 95%
    22:00 +24°C° 2.7 mm 0 mps 751 mmHg 96%
    23:00 +24°C° 0.8 mm 0 mps 751 mmHg 96%

    Day after tomorrow, 28 September, Thursday

    Time Temperature Precipitation Wind Pressure Humidity
    00:00 +24°C° 0.8 mm 0 mps 750 mmHg 96%
    01:00 +24°C° 0.8 mm 0 mps 750 mmHg 96%
    02:00 +23°C° 0.3 mm 0 mps 750 mmHg 96%
    03:00 +23°C° 0.3 mm 0 mps 749 mmHg 96%
    04:00 +23°C° 0.3 mm 0 mps 749 mmHg 96%
    05:00 +23°C° 0.1 mm 0 mps 750 mmHg 95%
    06:00 +24°C° 0.1 mm 0 mps 750 mmHg 94%
    07:00 +24°C° 0.1 mm 0 mps 751 mmHg 93%
    08:00 +26°C° 0.1 mm 0 mps 751 mmHg 86%
    09:00 +28°C° 0.1 mm 0 mps 751 mmHg 79%
    10:00 +32°C° 0.1 mm 1 mps 751 mmHg 71%
    11:00 +32°C° 0.4 mm 1 mps 750 mmHg 71%
    12:00 +32°C° 0.4 mm 1 mps 749 mmHg 70%
    13:00 +34°C° 0.4 mm 2 mps 749 mmHg 70%
    14:00 +32°C° 1.1 mm 2 mps 748 mmHg 76%
    15:00 +31°C° 1.1 mm 1 mps 748 mmHg 81%
    16:00 +29°C° 1.1 mm 1 mps 747 mmHg 87%
    17:00 +28°C° 1.1 mm 1 mps 748 mmHg 90%
    18:00 +27°C° 1.1 mm 1 mps 748 mmHg 93%
    19:00 +26°C° 1.1 mm 1 mps 749 mmHg 96%
    20:00 +24°C° 1.1 mm 0 mps 750 mmHg 96%
    21:00 +24°C° 1.1 mm 0 mps 750 mmHg 96%
    22:00 +24°C° 1.1 mm 0 mps 751 mmHg 96%
    23:00 +24°C° 0.2 mm 0 mps 751 mmHg 96%

    29 September, Friday

    Time Temperature Precipitation Wind Pressure Humidity
    00:00 +24°C° 0.2 mm 0 mps 750 mmHg 96%
    01:00 +23°C° 0.2 mm 0 mps 750 mmHg 97%
    02:00 +23°C° 0.2 mm 0 mps 750 mmHg 97%
    03:00 +23°C° 0.2 mm 0 mps 750 mmHg 97%
    04:00 +23°C° 0.2 mm 0 mps 749 mmHg 97%
    05:00 +24°C° 0.1 mm 0 mps 750 mmHg 96%
    06:00 +24°C° 0.1 mm 0 mps 750 mmHg 95%
    07:00 +24°C° 0.1 mm 0 mps 751 mmHg 94%
    08:00 +26°C° 0.1 mm 0 mps 751 mmHg 86%
    09:00 +30°C° 0.1 mm 1 mps 751 mmHg 79%
    10:00 +32°C° 0.1 mm 1 mps 751 mmHg 71%
    11:00 +31°C° 1.1 mm 1 mps 750 mmHg 76%
    12:00 +31°C° 1.1 mm 1 mps 749 mmHg 80%
    13:00 +31°C° 1.1 mm 2 mps 749 mmHg 84%
    14:00 +30°C° 1.4 mm 1 mps 748 mmHg 86%
    15:00 +29°C° 1.4 mm 1 mps 748 mmHg 88%
    16:00 +29°C° 1.4 mm 1 mps 748 mmHg 90%
    17:00 +28°C° 1.2 mm 1 mps 748 mmHg 92%
    18:00 +27°C° 1.2 mm 1 mps 749 mmHg 94%
    19:00 +26°C° 1.2 mm 1 mps 750 mmHg 96%
    20:00 +26°C° 0.7 mm 1 mps 750 mmHg 96%
    21:00 +24°C° 0.7 mm 0 mps 751 mmHg 96%
    22:00 +24°C° 0.7 mm 0 mps 751 mmHg 96%
    23:00 +23°C° 0.5 mm 0 mps 751 mmHg 95%

    30 September, Saturday

    Time Temperature Precipitation Wind Pressure Humidity
    00:00 +23°C° 0.5 mm 0 mps 750 mmHg 95%
    01:00 +23°C° 0.5 mm 0 mps 750 mmHg 95%
    02:00 +23°C° 0.8 mm 0 mps 750 mmHg 95%
    03:00 +23°C° 0.8 mm 0 mps 750 mmHg 95%
    04:00 +23°C° 0.8 mm 0 mps 750 mmHg 95%
    05:00 +23°C° 0.7 mm 0 mps 750 mmHg 94%
    06:00 +23°C° 0.7 mm 0 mps 751 mmHg 93%
    07:00 +24°C° 0.7 mm 0 mps 751 mmHg 93%
    08:00 +25°C° 0.4 mm 0 mps 751 mmHg 88%
    09:00 +28°C° 0.4 mm 1 mps 751 mmHg 83%
    10:00 +30°C° 0.4 mm 1 mps 751 mmHg 78%
    11:00 +30°C° 0.6 mm 1 mps 750 mmHg 79%
    12:00 +30°C° 0.6 mm 1 mps 749 mmHg 79%
    13:00 +31°C° 0.6 mm 2 mps 749 mmHg 79%
    14:00 +30°C° 2.1 mm 1 mps 748 mmHg 84%
    15:00 +28°C° 2.1 mm 1 mps 748 mmHg 89%
    16:00 +27°C° 2.1 mm 1 mps 748 mmHg 93%
    17:00 +27°C° 5 mm 1 mps 748 mmHg 94%
    18:00 +26°C° 5 mm 1 mps 749 mmHg 96%
    19:00 +26°C° 5 mm 1 mps 750 mmHg 97%
    20:00 +24°C° 7.3 mm 0 mps 750 mmHg 97%
    21:00 +24°C° 7.3 mm 0 mps 750 mmHg 97%
    22:00 +24°C° 7.3 mm 0 mps 751 mmHg 97%
    23:00 +23°C° 6.2 mm 0 mps 750 mmHg 97%

    1 October, Sunday

    Time Temperature Precipitation Wind Pressure Humidity
    00:00 +23°C° 6.2 mm 0 mps 750 mmHg 97%
    01:00 +23°C° 6.2 mm 0 mps 749 mmHg 97%
    02:00 +23°C° 5.9 mm 0 mps 749 mmHg 97%
    03:00 +23°C° 5.9 mm 0 mps 749 mmHg 97%
    04:00 +23°C° 5.9 mm 0 mps 749 mmHg 97%
    05:00 +23°C° 5.4 mm 0 mps 749 mmHg 96%
    06:00 +25°C° 5.4 mm 1 mps 750 mmHg 96%
    07:00 +25°C° 5.4 mm 1 mps 750 mmHg 96%
    08:00 +25°C° 6 mm 1 mps 750 mmHg 95%
    09:00 +26°C° 6 mm 1 mps 750 mmHg 94%
    10:00 +26°C° 6 mm 1 mps 751 mmHg 93%
    11:00 +26°C° 2.3 mm 1 mps 750 mmHg 92%
    12:00 +27°C° 2.3 mm 1 mps 749 mmHg 91%
    13:00 +27°C° 2.3 mm 1 mps 749 mmHg 90%
    14:00 +27°C° 1.1 mm 1 mps 749 mmHg 91%
    15:00 +25°C° 1.1 mm 0 mps 748 mmHg 92%
    16:00 +24°C° 1.1 mm 0 mps 748 mmHg 94%
    17:00 +24°C° 0.7 mm 0 mps 749 mmHg 94%
    18:00 +23°C° 0.7 mm 0 mps 749 mmHg 95%
    19:00 +23°C° 0.7 mm 0 mps 750 mmHg 96%
    20:00 +23°C° 0.5 mm 0 mps 750 mmHg 95%
    21:00 +23°C° 0.5 mm 0 mps 751 mmHg 94%
    22:00 +23°C° 0.5 mm 0 mps 751 mmHg 93%
    23:00 +23°C° 0.7 mm 0 mps 751 mmHg 92%
    Show more